FW6919 Weather Reports


time (UTC)temp
F
wind
direction
speed
knots
gust
knots
rain 1hr
in
rain 24hr
in
rain mn
in
humidity
%
barometer
mb
20260506132114 53 5 4.3 12.2 0.00 0.00 0.00 83 1015.3
20260506131613 53 327 8.7 12.2 0.00 0.00 0.00 83 1015.1
20260506131114 53 10 7.8 12.2 0.00 0.00 0.00 83 1015.0
20260506130614 52 13 3.5 13.9 0.00 0.00 0.00 83 1014.8
20260506130113 52 360 7.0 13.9 0.00 0.00 0.00 83 1014.8
20260506125612 52 38 8.7 14.8 0.00 0.00 0.00 83 1014.8
20260506125112 52 5 8.7 14.8 0.00 0.00 0.00 83 1014.4
20260506124612 53 341 4.3 13.9 0.00 0.00 0.00 82 1014.6
20260506124110 53 324 8.7 13.0 0.00 0.00 0.00 82 1014.5
20260506123613 53 5 12.2 13.0 0.00 0.00 0.00 81 1014.5
20260506123112 53 344 5.2 11.3 0.00 0.00 0.00 81 1014.6
20260506122612 53 17 9.6 13.0 0.00 0.00 0.00 81 1014.4
20260506122113 54 5 7.0 13.0 0.00 0.00 0.00 81 1014.3
20260506121611 54 331 9.6 13.9 0.00 0.00 0.00 80 1014.2
20260506121111 54 26 5.2 13.9 0.00 0.00 0.00 79 1014.3
20260506120611 54 22 8.7 13.9 0.00 0.00 0.00 78 1014.2
20260506120111 54 360 4.3 13.9 0.00 0.00 0.00 78 1014.2
20260506115615 55 312 9.6 13.9 0.00 0.00 0.00 77 1014.1
20260506115111 55 360 7.0 13.9 0.00 0.00 0.00 77 1014.0
20260506114613 55 336 4.3 12.2 0.00 0.00 0.00 76 1014.0
20260506114112 55 323 7.0 13.0 0.00 0.00 0.00 76 1014.0
20260506113614 55 360 7.8 13.0 0.00 0.00 0.00 76 1013.7
20260506113114 55 360 3.5 12.2 0.00 0.00 0.00 76 1013.7
20260506112614 55 313 7.8 12.2 0.00 0.00 0.00 75 1013.6
20260506112113 56 5 3.5 13.0 0.00 0.00 0.00 76 1013.7
20260506111613 55 5 2.6 14.8 0.00 0.00 0.00 76 1013.3
20260506111111 55 5 10.4 15.6 0.00 0.00 0.00 75 1013.1
20260506110610 56 22 8.7 15.6 0.00 0.00 0.00 75 1013.2
20260506110113 56 342 12.2 15.6 0.00 0.00 0.00 75 1013.2
20260506105612 56 317 4.3 14.8 0.00 0.00 0.00 75 1013.0
20260506105111 56 339 9.6 14.8 0.00 0.00 0.00 75 1012.9
20260506104611 56 329 5.2 13.0 0.00 0.00 0.00 75 1012.8
20260506104111 56 24 3.5 13.0 0.00 0.00 0.00 75 1012.9
20260506103616 57 330 3.5 13.0 0.00 0.00 0.00 75 1012.8
20260506103114 57 352 7.0 13.0 0.00 0.00 0.00 75 1012.7
20260506102615 57 326 11.3 10.4 0.00 0.00 0.00 75 1012.7
20260506102113 57 348 4.3 11.3 0.00 0.00 0.00 75 1012.5
20260506101611 57 46 2.6 11.3 0.00 0.00 0.00 75 1012.4
20260506101110 57 352 1.7 11.3 0.00 0.00 0.00 76 1012.3
20260506100611 57 15 1.7 12.2 0.00 0.00 0.00 76 1012.2
20260506100113 57 21 4.3 12.2 0.00 0.00 0.00 76 1012.3
20260506095629 57 32 4.3 11.3 0.00 0.00 0.00 75 1012.1
20260506095131 57 360 7.0 11.3 0.00 0.00 0.00 75 1012.0
20260506094631 57 28 5.2 12.2 0.00 0.00 0.00 76 1012.0
20260506094129 57 10 8.7 12.2 0.00 0.00 0.00 75 1011.9
20260506093628 57 31 4.3 11.3 0.00 0.00 0.00 75 1012.1
20260506093129 57 32 3.5 10.4 0.00 0.00 0.00 75 1012.1
20260506092627 58 34 2.6 8.7 0.00 0.00 0.00 76 1011.8
20260506092128 58 32 4.3 9.6 0.00 0.00 0.00 76 1011.8
20260506091627 58 9 6.1 11.3 0.00 0.00 0.00 76 1011.9
20260506091129 58 10 4.3 11.3 0.00 0.00 0.00 76 1011.8
20260506090630 58 9 4.3 11.3 0.00 0.00 0.00 76 1011.8
20260506090126 58 360 3.5 11.3 0.00 0.00 0.00 76 1011.9
20260506085628 58 28 4.3 9.6 0.00 0.00 0.00 76 1011.8
20260506085128 58 360 5.2 9.6 0.00 0.00 0.00 76 1011.6
20260506084627 58 5 7.8 9.6 0.00 0.00 0.00 76 1011.6
20260506084125 59 5 0.9 9.6 0.00 0.00 0.00 77 1011.6
20260506083626 59 5 2.6 9.6 0.00 0.00 0.00 76 1011.4
20260506083125 59 10 7.0 9.6 0.00 0.00 0.00 76 1011.5
20260506082624 59 11 3.5 9.6 0.00 0.00 0.00 77 1011.3
20260506082126 59 9 7.0 9.6 0.00 0.00 0.00 77 1011.4
20260506081624 59 360 2.6 8.7 0.00 0.00 0.00 77 1011.6
20260506081125 59 30 1.7 7.8 0.00 0.00 0.00 77 1011.3
20260506080626 59 360 4.3 9.6 0.00 0.00 0.00 76 1011.4
20260506080123 59 30 2.6 9.6 0.00 0.00 0.00 76 1011.5
20260506073125 59 5 4.3 8.7 0.00 0.00 0.00 78 1010.9
20260506072623 59 5 3.5 11.3 0.00 0.00 0.00 78 1010.8
20260506072121 59 9 4.3 11.3 0.00 0.00 0.00 78 1010.7
20260506071622 59 10 6.1 10.4 0.00 0.00 0.00 78 1011.0
20260506071120 59 9 3.5 8.7 0.00 0.00 0.00 78 1010.9
20260506070622 59 9 4.3 8.7 0.00 0.00 0.00 78 1010.8
20260506070122 59 11 6.1 8.7 0.00 0.00 0.00 78 1011.1
20260506062121 60 10 3.5 10.4 0.00 0.00 0.00 78 1011.1
20260506061621 60 5 7.0 12.2 0.00 0.00 0.00 78 1010.9
20260506061119 60 5 4.3 12.2 0.00 0.00 0.00 78 1011.0
20260506060619 60 9 6.1 12.2 0.00 0.00 0.00 77 1011.1
20260506060121 60 360 1.7 10.4 0.00 0.00 0.00 78 1011.1
20260506051119 62 26 8.7 12.2 0.00 0.00 0.00 78 1011.1
20260506050619 62 9 3.5 13.0 0.00 0.00 0.00 78 1011.2
20260506050121 62 26 5.2 13.0 0.00 0.00 0.00 78 1010.9
20260506045120 62 5 2.6 9.6 0.00 0.00 0.00 78 1010.8
20260506044617 62 9 1.7 10.4 0.00 0.00 0.00 78 1010.8
20260506044118 63 9 4.3 11.3 0.00 0.00 0.00 78 1010.8
20260506043618 63 5 2.6 11.3 0.00 0.00 0.00 78 1010.9
20260506043116 63 360 2.6 13.9 0.00 0.00 0.00 78 1010.8
20260506042618 63 26 7.0 13.9 0.00 0.00 0.00 77 1010.8
20260506042116 63 24 8.7 13.0 0.00 0.00 0.00 77 1010.8
20260506041616 64 24 4.3 13.0 0.00 0.00 0.00 76 1010.9
20260506041117 64 5 3.5 17.4 0.00 0.00 0.00 77 1010.8
20260506040616 64 25 5.2 17.4 0.00 0.00 0.00 77 1010.7
20260506040116 64 9 6.1 13.9 0.00 0.00 0.00 77 1010.8
20260506035617 64 24 4.3 13.9 0.00 0.00 0.00 76 1010.7
20260506035117 65 360 3.5 13.9 0.00 0.00 0.00 76 1010.6
20260506034615 65 5 5.2 13.9 0.00 0.00 0.00 76 1010.2
20260506034114 65 9 8.7 12.2 0.00 0.00 0.00 76 1010.2
20260506033615 65 10 3.5 12.2 0.00 0.00 0.00 76 1010.0
20260506033114 65 9 4.3 13.0 0.00 0.00 0.00 76 1009.8
20260506032617 66 5 5.2 13.9 0.00 0.00 0.00 75 1009.8
20260506032115 66 5 9.6 13.9 0.00 0.00 0.00 75 1009.8
20260506031615 67 33 7.8 14.8 0.00 0.00 0.00 75 1009.7
20260506031115 67 10 6.1 14.8 0.00 0.00 0.00 75 1009.6
20260506030614 67 32 8.7 14.8 0.00 0.00 0.00 75 1009.6
20260506030115 68 29 4.3 14.8 0.00 0.00 0.00 75 1009.6
20260506025613 68 35 9.6 12.2 0.00 0.00 0.00 74 1009.5
20260506025115 68 11 6.1 12.2 0.00 0.00 0.00 74 1009.3
20260506024615 68 30 4.3 12.2 0.00 0.00 0.00 73 1009.1
20260506024115 68 28 5.2 12.2 0.00 0.00 0.00 73 1009.0
20260506023613 69 9 3.5 12.2 0.00 0.00 0.00 73 1008.8
20260506023113 69 9 4.3 9.6 0.00 0.00 0.00 73 1008.8
20260506022614 69 32 7.8 9.6 0.00 0.00 0.00 72 1008.8
20260506022114 69 360 2.6 10.4 0.00 0.00 0.00 72 1008.7
20260506021614 69 27 1.7 10.4 0.00 0.00 0.00 72 1008.4
20260506021112 69 10 7.0 11.3 0.00 0.00 0.00 71 1008.3
20260506020614 69 29 5.2 11.3 0.00 0.00 0.00 71 1008.4
20260506020111 69 26 10.4 11.3 0.00 0.00 0.00 71 1008.3
20260506015610 69 30 7.0 10.4 0.00 0.00 0.00 72 1008.1
20260506015113 70 5 4.3 10.4 0.00 0.00 0.00 72 1007.9
20260506014614 70 25 2.6 10.4 0.00 0.00 0.00 72 1007.6
20260506014113 70 9 8.7 9.6 0.00 0.00 0.00 72 1007.6
20260506013613 71 9 3.5 9.6 0.00 0.00 0.00 71 1007.8
20260506013114 71 9 6.1 9.6 0.00 0.00 0.00 71 1007.7
20260506012613 71 27 2.6 9.6 0.00 0.00 0.00 71 1007.4
20260506012111 71 33 3.5 9.6 0.00 0.00 0.00 71 1007.4
20260506011610 72 5 4.3 9.6 0.00 0.00 0.00 71 1007.2
20260506011111 72 10 1.7 9.6 0.00 0.00 0.00 70 1007.3
20260506010612 72 9 8.7 9.6 0.00 0.00 0.00 70 1007.2
20260506010111 72 9 2.6 10.4 0.00 0.00 0.00 69 1007.2
20260506005611 73 360 1.7 10.4 0.00 0.00 0.00 69 1007.2
20260506005115 73 9 4.3 10.4 0.00 0.00 0.00 69 1007.1
20260506004610 73 13 2.6 11.3 0.00 0.00 0.00 70 1006.7
20260506004112 73 360 4.3 13.0 0.00 0.00 0.00 69 1006.9
20260506003614 74 360 2.6 13.0 0.00 0.00 0.00 69 1006.3
20260506003111 75 11 6.1 13.0 0.00 0.00 0.00 69 1006.2
20260506002611 75 11 7.0 12.2 0.00 0.00 0.00 68 1006.5
20260506002112 76 9 8.7 9.6 0.00 0.00 0.00 68 1006.4
20260506001612 76 360 3.5 10.4 0.00 0.00 0.00 67 1006.2
20260506001114 77 44 4.3 12.2 0.00 0.00 0.00 66 1006.2
20260506000612 77 10 7.0 13.0 0.00 0.00 0.00 65 1006.2
20260506000110 78 360 5.2 13.9 0.00 0.00 0.00 64 1006.0
20260505235612 78 36 3.5 17.4 0.00 0.00 0.00 63 1006.0
20260505235113 78 9 7.8 17.4 0.00 0.00 0.00 63 1005.9
20260505234614 79 10 10.4 13.9 0.00 0.00 0.00 63 1006.0
20260505234110 79 40 10.4 13.9 0.00 0.00 0.00 62 1005.9
20260505233613 80 46 3.5 13.9 0.00 0.00 0.00 63 1005.8
20260505233111 80 10 7.0 13.9 0.00 0.00 0.00 62 1005.8
20260505232613 81 360 4.3 14.8 0.00 0.00 0.00 62 1005.7
20260505232113 81 360 3.5 16.5 0.00 0.00 0.00 61 1005.7
20260505231611 81 360 14.8 16.5 0.00 0.00 0.00 60 1005.9
20260505231111 82 342 10.4 14.8 0.00 0.00 0.00 59 1005.6
20260505230613 82 337 10.4 14.8 0.00 0.00 0.00 58 1005.5
20260505230112 83 302 12.2 14.8 0.00 0.00 0.00 59 1005.7
20260505225613 84 304 7.0 14.8 0.00 0.00 0.00 59 1005.6
20260505225114 84 309 7.0 14.8 0.00 0.00 0.00 59 1005.4
20260505224610 85 307 10.4 14.8 0.00 0.00 0.00 57 1005.2
20260505224111 86 19 7.8 13.9 0.00 0.00 0.00 57 1005.0
20260505223614 86 321 3.5 13.9 0.00 0.00 0.00 56 1005.0
20260505223113 86 60 5.2 13.9 0.00 0.00 0.00 55 1005.0
20260505222611 87 5 7.0 13.9 0.00 0.00 0.00 52 1005.0
20260505222114 87 313 7.0 13.0 0.00 0.00 0.00 51 1004.9
20260505221611 87 331 8.7 13.0 0.00 0.00 0.00 50 1004.8
20260505221113 87 346 7.8 12.2 0.00 0.00 0.00 51 1004.7
20260505220610 87 319 8.7 11.3 0.00 0.00 0.00 50 1004.7
20260505220113 87 318 7.8 13.0 0.00 0.00 0.00 50 1004.5
20260505215614 88 304 7.8 13.9 0.00 0.00 0.00 49 1004.6
20260505215112 89 301 10.4 13.9 0.00 0.00 0.00 50 1004.5
20260505214612 89 337 11.3 13.9 0.00 0.00 0.00 51 1004.6
20260505214111 89 312 4.3 13.0 0.00 0.00 0.00 50 1004.6
20260505213613 90 328 10.4 13.0 0.00 0.00 0.00 49 1004.5
20260505213111 91 281 5.2 12.2 0.00 0.00 0.00 49 1004.6
20260505212614 91 254 1.7 12.2 0.00 0.00 0.00 50 1004.5
20260505212110 91 245 3.5 12.2 0.00 0.00 0.00 49 1004.5
20260505211613 91 294 7.0 11.3 0.00 0.00 0.00 48 1004.6
20260505211112 92 236 2.6 11.3 0.00 0.00 0.00 49 1004.7
20260505210614 92 285 5.2 8.7 0.00 0.00 0.00 50 1004.8
20260505210113 92 234 7.8 8.7 0.00 0.00 0.00 50 1004.8
20260505205613 92 278 2.6 9.6 0.00 0.00 0.00 50 1004.8
20260505205114 91 219 2.6 9.6 0.00 0.00 0.00 50 1004.9
20260505204612 92 275 9.6 9.6 0.00 0.00 0.00 51 1005.0
20260505204111 91 208 4.3 10.4 0.00 0.00 0.00 52 1005.0
20260505203612 90 286 3.5 10.4 0.00 0.00 0.00 54 1005.2
20260505203112 90 236 8.7 12.2 0.00 0.00 0.00 53 1005.2
20260505202611 89 266 6.1 12.2 0.00 0.00 0.00 54 1005.1
20260505202113 89 212 7.8 12.2 0.00 0.00 0.00 55 1005.4
20260505201611 89 203 7.0 9.6 0.00 0.00 0.00 57 1005.5
20260505201113 88 209 7.0 10.4 0.00 0.00 0.00 59 1005.5
20260505200610 88 211 7.8 12.2 0.00 0.00 0.00 58 1005.4
20260505200112 88 234 5.2 14.8 0.00 0.00 0.00 58 1005.5
20260505195612 88 223 4.3 14.8 0.00 0.00 0.00 57 1005.5
20260505195114 89 217 5.2 14.8 0.00 0.00 0.00 57 1005.6
20260505194612 89 169 3.5 13.9 0.00 0.00 0.00 57 1005.5
20260505194113 89 229 6.1 13.0 0.00 0.00 0.00 58 1005.5
20260505193611 88 248 2.6 13.9 0.00 0.00 0.00 57 1005.5
20260505193111 88 247 7.0 13.9 0.00 0.00 0.00 58 1005.5
20260505192544 88 246 9.6 12.2 0.00 0.00 0.00 60 1005.8
20260505192114 87 235 4.3 12.2 0.00 0.00 0.00 61 1005.6
20260505191614 87 236 5.2 12.2 0.00 0.00 0.00 61 1005.5
20260505191114 87 215 11.3 10.4 0.00 0.00 0.00 64 1005.6
20260505190612 86 236 4.3 13.0 0.00 0.00 0.00 64 1005.5
20260505190113 85 177 4.3 13.0 0.00 0.00 0.00 65 1005.6
20260505185613 85 203 5.2 13.0 0.00 0.00 0.00 67 1005.5
20260505185114 84 179 5.2 13.0 0.00 0.00 0.00 67 1005.6
20260505184611 84 190 3.5 13.0 0.00 0.00 0.00 66 1005.6
20260505184112 84 167 10.4 13.0 0.00 0.00 0.00 68 1005.6
20260505183611 84 154 5.2 13.0 0.00 0.00 0.00 68 1005.8
20260505183113 84 225 6.1 13.0 0.00 0.00 0.00 68 1005.7
20260505182615 83 238 11.3 13.0 0.00 0.00 0.00 68 1005.8
20260505182113 83 257 8.7 14.8 0.00 0.00 0.00 69 1005.8
20260505181612 83 225 12.2 14.8 0.00 0.00 0.00 69 1005.9
20260505181115 83 213 4.3 13.9 0.00 0.00 0.00 69 1005.8
20260505180613 82 185 7.0 17.4 0.00 0.00 0.00 70 1005.9
20260505180111 82 209 5.2 17.4 0.00 0.00 0.00 70 1005.9
20260505175613 82 249 3.5 16.5 0.00 0.00 0.00 70 1006.0
20260505175111 82 216 7.8 15.6 0.00 0.00 0.00 70 1005.9
20260505174611 82 202 8.7 14.8 0.00 0.00 0.00 71 1005.9
20260505174111 82 219 7.8 14.8 0.00 0.00 0.00 71 1005.9
20260505173609 82 236 3.5 20.9 0.00 0.00 0.00 71 1005.9
20260505173110 82 214 11.3 20.9 0.00 0.00 0.00 71 1005.9
20260505172636 81 224 6.1 20.9 0.00 0.00 0.00 71 1005.9
20260505172136 82 192 7.8 17.4 0.00 0.00 0.00 71 1005.9
20260505171634 81 219 7.8 17.4 0.00 0.00 0.00 72 1006.0
20260505171135 81 212 5.2 16.5 0.00 0.00 0.00 72 1006.0
20260505170634 81 221 13.9 16.5 0.00 0.00 0.00 71 1005.9
20260505170135 81 242 4.3 18.2 0.00 0.00 0.00 72 1005.9
20260505165633 81 212 5.2 20.0 0.00 0.00 0.00 72 1005.9
20260505165133 81 215 6.1 20.0 0.00 0.00 0.00 71 1005.9
20260505164633 81 209 7.8 12.2 0.00 0.00 0.00 72 1005.8
20260505164134 81 175 6.1 11.3 0.00 0.00 0.00 73 1005.9
20260505163634 80 246 7.0 16.5 0.00 0.00 0.00 76 1006.0
20260505163136 79 259 3.5 18.2 0.00 0.00 0.00 75 1005.9
20260505162644 78 136 7.8 18.2 0.00 0.00 0.00 75 1005.9
20260505162134 79 246 9.6 16.5 0.00 0.00 0.00 75 1005.9
20260505161637 78 220 5.2 17.4 0.00 0.00 0.00 75 1005.9
20260505161134 78 229 6.1 19.1 0.00 0.00 0.00 75 1005.9
20260505160633 78 254 6.1 20.0 0.00 0.00 0.00 75 1005.9
20260505160132 78 227 7.8 20.0 0.00 0.00 0.00 75 1005.8
20260505153133 76 230 7.0 20.0 0.00 0.00 0.00 78 1005.6
20260505152635 76 190 3.5 19.1 0.00 0.00 0.00 78 1005.6
20260505152133 76 195 8.7 16.5 0.00 0.00 0.00 78 1005.6
20260505151632 76 203 7.8 16.5 0.00 0.00 0.00 79 1005.7
20260505151131 76 219 7.8 18.2 0.00 0.00 0.00 79 1005.6
20260505150630 75 211 8.7 20.0 0.00 0.00 0.00 80 1005.6
20260505150133 75 182 4.3 20.0 0.00 0.00 0.00 80 1005.7
20260505140630 74 209 8.7 19.1 0.00 0.00 0.00 82 1005.5
20260505140129 74 40 10.4 19.1 0.00 0.00 0.00 82 1005.5